Time[GMT],air_temperature[C](-3m),wind_speed[m/s](-4m),wind_gust[m/s](-4m),visibility[m](-3m),barometric_pressure[millibars](-3m),wind_2_direction[degrees_true](-4m),wind_2_gust[m/s](-4m),wind_2_gust_1s[m/s](-4m),wind_2_min[m/s](-4m),wind_2_percent_good[1](-4m),wind_2_speed[m/s](-4m),wind_direction[degrees_true](-4m),wind_gust_1s[m/s](-4m),wind_min[m/s](-4m)
2013-10-29 21:00,6.9,,,2414,1028.93,72.60,3.53,4.27,1.12,1.00,2.72,,,
2013-10-29 22:00,6.6,,,2950,1028.50,93.80,3.10,3.57,0.75,1.00,1.88,,,
2013-10-29 23:00,6.7,,,2960,1028.62,90.80,3.36,3.78,0.87,1.00,2.15,,,
2013-10-30 01:00,6.8,,,2963,1028.62,168.10,2.47,2.93,0.38,1.00,1.53,,,
2013-10-30 02:00,6.9,,,2959,1028.44,181.00,1.92,2.19,0.22,1.00,1.11,,,
2013-10-30 03:00,7.1,,,2959,1028.26,157.20,3.21,3.55,0.67,1.00,2.18,,,
2013-10-30 04:00,7.4,,,2956,1027.76,202.80,3.33,3.76,1.34,1.00,2.60,,,
2013-10-30 05:00,7.8,,,2955,1027.46,195.10,4.61,4.99,1.37,1.00,3.07,,,
2013-10-30 06:00,7.9,,,2953,1026.72,209.60,5.50,5.83,2.74,1.00,4.19,,,
2013-10-30 07:00,8.1,,,2956,1026.35,221.50,6.23,6.81,2.95,1.00,4.56,,,
2013-10-30 09:00,8.5,,,2960,1025.37,226.40,6.34,6.92,2.44,1.00,4.55,,,
2013-10-30 10:00,8.4,,,2956,1025.31,236.10,8.51,9.20,4.30,1.00,6.81,,,
2013-10-30 11:00,7.5,,,2940,1025.12,248.70,6.41,7.24,3.17,1.00,5.22,,,
2013-10-30 12:00,7.6,,,2929,1025.31,250.10,6.38,6.82,2.64,1.00,4.84,,,
2013-10-30 13:00,8.2,,,2942,1025.31,255.40,6.26,6.91,2.97,1.00,5.17,,,
2013-10-30 14:00,7.7,,,2850,1025.25,259.20,6.43,6.97,3.03,1.00,5.29,,,
2013-10-30 15:00,6.5,,,2783,1025.55,280.10,7.06,7.68,3.74,1.00,5.80,,,
2013-10-30 16:00,6.2,,,2772,1025.25,285.10,5.18,5.85,2.50,1.00,4.06,,,
2013-10-30 17:00,6.2,,,2942,1023.96,281.70,3.87,4.18,1.58,1.00,2.82,,,
2013-10-30 18:00,6.8,,,2935,1023.16,281.90,4.22,4.67,2.36,1.00,3.41,,,
2013-10-30 19:00,6.8,,,2935,1023.16,281.90,4.22,4.67,2.36,1.00,3.41,,,
2013-10-30 20:00,8.6,,,2891,1022.61,281.10,4.81,5.07,2.41,1.00,3.94,,,
2013-10-30 21:00,8.9,,,2906,1022.42,266.60,4.00,4.26,1.74,1.00,3.12,,,
2013-10-30 22:00,9.0,,,2915,1022.42,287.90,3.14,3.55,1.43,1.00,2.44,,,
2013-10-30 23:00,9.2,,,2937,1023.04,351.36,2.81,3.00,0.85,1.00,1.94,,,
2013-10-31 00:00,9.1,,,2947,1023.04,270.80,1.20,1.36,0.05,1.00,0.76,,,
2013-10-31 01:00,9.4,,,2941,1023.41,253.70,1.83,2.04,0.64,1.00,1.25,,,
2013-10-31 02:00,9.4,,,2948,1023.53,50.63,1.41,1.56,0.10,1.00,0.63,,,
2013-10-31 03:00,9.3,,,2933,1023.34,219.20,0.86,1.10,0.00,1.00,0.35,,,
2013-10-31 04:00,9.9,,,2915,1023.34,237.50,2.74,2.85,1.25,1.00,2.11,,,
2013-10-31 05:00,10.3,,,2919,1023.53,193.80,2.50,2.63,1.12,1.00,1.85,,,
2013-10-31 06:00,10.5,,,2921,1023.71,183.00,3.09,3.27,1.74,1.00,2.48,,,
2013-10-31 07:00,10.8,,,2919,1023.16,163.10,4.00,4.12,2.20,1.00,3.10,,,
2013-10-31 08:00,11.1,,,2895,1022.91,153.80,4.71,5.04,2.85,1.00,3.94,,,
2013-10-31 09:00,11.2,,,2885,1022.36,165.30,6.93,7.52,4.62,1.00,6.13,,,
2013-10-31 10:00,11.5,,,2874,1022.24,168.10,5.64,6.50,3.66,1.00,5.12,,,
2013-10-31 11:00,11.7,,,2829,1022.12,173.20,5.32,6.48,2.36,1.00,4.54,,,
2013-10-31 12:00,12.1,,,2814,1022.36,179.30,6.40,7.12,2.97,1.00,5.35,,,
2013-10-31 13:00,12.1,,,2772,1022.24,176.70,7.54,8.14,3.70,1.00,5.90,,,
2013-10-31 14:00,12.2,,,2730,1021.93,177.30,7.64,8.34,4.43,1.00,6.36,,,
2013-10-31 15:00,12.4,,,2638,1020.77,166.70,6.88,7.73,3.82,1.00,5.99,,,
2013-10-31 16:00,12.5,,,2551,1020.28,164.20,6.18,6.89,3.15,1.00,5.24,,,
2013-10-31 17:00,13.1,,,2659,1018.75,158.10,7.27,7.98,4.44,1.00,6.39,,,
2013-10-31 18:00,13.3,,,2754,1017.77,156.20,7.99,9.12,4.75,1.00,7.05,,,
2013-10-31 19:00,13.7,,,2796,1016.42,162.90,8.65,9.54,5.22,1.00,7.47,,,
2013-10-31 20:00,13.8,,,2724,1015.87,164.90,9.94,11.08,5.93,1.00,8.83,,,
2013-10-31 21:00,13.5,,,2735,1015.19,159.80,7.72,8.38,3.85,1.00,6.44,,,
2013-10-31 22:00,13.9,,,2843,1014.34,160.50,7.88,8.61,4.57,1.00,6.80,,,
2013-10-31 23:00,14.2,,,2775,1013.85,177.20,6.81,7.40,3.74,1.00,5.94,,,
2013-11-01 00:00,14.4,,,2679,1012.99,187.40,7.05,7.77,3.82,1.00,6.05,,,
2013-11-01 01:00,14.4,,,2748,1011.65,190.60,6.52,7.48,3.54,1.00,5.69,,,
2013-11-01 02:00,15.2,,,2771,1010.97,201.90,10.53,11.51,5.82,1.00,8.54,,,
2013-11-01 03:00,15.3,,,2576,1010.36,204.30,10.83,12.20,6.38,1.00,9.27,,,
2013-11-01 04:00,14.7,,,2666,1008.71,181.20,9.81,10.68,5.55,1.00,8.36,,,
2013-11-01 05:00,14.4,,,2761,1007.00,174.80,8.54,9.34,5.33,1.00,7.31,,,
2013-11-01 06:00,15.0,,,2707,1005.72,184.00,11.26,12.44,6.53,1.00,9.78,,,
2013-11-01 07:00,15.5,,,2820,1004.87,206.80,10.62,11.21,5.90,1.00,8.66,,,
2013-11-01 08:00,15.3,,,2820,1003.95,196.70,10.65,11.88,5.73,1.00,9.02,,,
2013-11-01 09:00,15.3,,,2739,1003.34,194.30,10.18,11.26,5.74,1.00,8.91,,,
2013-11-01 10:00,15.3,,,2701,1002.55,191.30,10.40,11.49,6.18,1.00,8.51,,,
2013-11-01 11:00,15.9,,,2719,1001.14,187.30,12.65,13.52,5.19,1.00,10.86,,,
2013-11-01 12:00,16.3,,,2676,1000.84,195.00,13.12,14.19,7.33,1.00,10.66,,,
2013-11-01 13:00,17.4,,,2625,1000.66,199.60,17.11,18.86,8.35,1.00,13.68,,,
2013-11-01 14:00,17.6,,,2601,999.68,199.40,15.89,18.08,10.05,1.00,13.97,,,
2013-11-01 15:00,17.5,,,2709,998.40,196.30,15.15,17.60,8.75,1.00,12.80,,,
2013-11-01 16:00,17.6,,,2662,997.67,199.80,16.49,17.11,8.27,1.00,12.59,,,
2013-11-01 17:00,16.3,,,2565,998.28,220.20,13.71,15.60,7.61,1.00,11.58,,,
2013-11-01 19:00,15.2,,,2843,996.76,199.80,11.88,12.87,7.56,1.00,10.23,,,
2013-11-01 20:00,15.7,,,2761,997.31,213.40,10.94,11.47,6.30,1.00,9.15,,,
2013-11-01 21:00,15.0,,,2894,997.55,215.50,8.63,10.01,4.53,1.00,7.10,,,
2013-11-01 22:00,14.4,,,2915,998.04,203.80,7.38,8.46,3.71,1.00,6.32,,,
2013-11-01 23:00,14.3,,,2895,999.07,189.00,8.29,9.62,5.13,1.00,7.30,,,
2013-11-02 00:00,14.4,,,2897,999.86,203.60,8.65,9.61,5.06,1.00,7.53,,,
2013-11-02 01:00,14.0,,,2901,1000.54,205.00,6.41,7.74,3.62,1.00,5.46,,,
2013-11-02 02:00,13.6,,,2918,1001.51,194.50,5.60,6.34,3.13,1.00,4.89,,,
2013-11-02 03:00,13.8,,,2927,1002.18,205.80,6.48,7.32,3.88,1.00,5.65,,,
2013-11-02 04:00,13.7,,,2944,1002.55,218.70,6.11,7.02,2.95,1.00,5.01,,,
2013-11-02 05:00,13.5,,,2945,1002.91,245.80,5.68,6.43,2.98,1.00,4.55,,,
2013-11-02 06:00,12.7,,,2934,1002.61,238.90,2.90,3.78,1.25,1.00,2.39,,,
2013-11-02 07:00,13.1,,,2954,1003.52,251.90,5.28,6.39,2.50,1.00,4.54,,,
2013-11-02 08:00,12.8,,,2964,1003.95,232.60,4.39,5.27,2.60,1.00,3.73,,,
2013-11-02 09:00,12.7,,,2965,1003.77,200.40,2.74,3.30,1.49,1.00,2.38,,,
2013-11-02 10:00,12.7,,,2963,1004.56,199.40,5.09,5.54,3.33,1.00,4.39,,,
2013-11-02 11:00,12.7,,,2959,1003.77,219.80,3.87,4.37,2.00,1.00,3.23,,,
2013-11-02 12:00,12.6,,,2895,1003.89,238.90,3.09,3.82,1.40,1.00,2.61,,,
2013-11-02 14:00,12.3,,,2922,1003.77,248.60,2.72,3.24,1.25,1.00,2.06,,,
2013-11-02 15:00,12.6,,,2907,1003.22,263.70,1.94,2.35,0.58,1.00,1.34,,,
2013-11-02 16:00,12.4,,,2919,1002.91,195.80,3.16,3.53,2.04,1.00,2.80,,,
2013-11-02 17:00,13.0,,,2856,1002.24,183.30,3.70,3.99,2.48,1.00,3.23,,,
2013-11-02 18:00,13.4,,,2916,1002.06,178.70,4.77,5.08,3.35,1.00,4.24,,,
2013-11-02 19:00,13.2,,,2731,1001.82,166.90,4.40,4.89,2.51,1.00,3.77,,,
2013-11-02 20:00,13.1,,,2925,1002.00,158.90,3.11,3.47,1.87,1.00,2.66,,,
2013-11-02 21:00,13.1,,,2921,1002.18,170.00,2.35,2.88,1.19,1.00,1.86,,,
2013-11-02 22:00,12.9,,,2960,1002.18,184.10,2.20,2.59,1.27,1.00,1.94,,,
2013-11-02 23:00,12.9,,,2963,1002.91,169.30,2.97,3.46,1.44,1.00,2.67,,,
2013-11-03 00:00,12.9,,,2951,1003.71,185.80,3.00,3.36,1.63,1.00,2.53,,,
2013-11-03 01:00,13.0,,,2958,1003.89,180.30,5.09,5.49,2.96,1.00,4.47,,,
2013-11-03 02:00,13.2,,,2957,1005.05,331.30,8.29,9.04,4.58,1.00,6.68,,,
2013-11-03 03:00,12.5,,,2965,1004.99,323.50,7.31,8.07,3.97,1.00,6.15,,,
2013-11-03 04:00,12.3,,,2953,1004.99,335.20,7.01,7.66,3.28,1.00,5.70,,,
2013-11-03 05:00,12.1,,,2962,1006.03,317.50,5.13,5.68,2.98,1.00,4.24,,,
2013-11-03 06:00,11.6,,,2946,1007.43,336.00,8.64,9.24,5.22,1.00,7.39,,,
2013-11-03 07:00,10.4,,,2702,1007.80,21.12,12.91,13.93,6.34,1.00,10.90,,,
2013-11-03 08:00,8.8,,,2546,1009.14,4.20,15.11,15.81,7.11,1.00,12.46,,,
2013-11-03 09:00,8.4,,,2918,1010.55,9.39,13.02,14.06,6.55,1.00,11.12,,,
2013-11-03 10:00,8.3,,,2939,1011.71,7.48,13.17,14.23,7.66,1.00,11.16,,,
2013-11-03 11:00,7.8,,,2855,1013.24,0.54,12.75,14.10,7.31,1.00,10.86,,,
2013-11-03 12:00,6.9,,,2745,1014.46,357.52,14.92,16.51,7.76,1.00,12.50,,,
2013-11-03 13:00,6.6,,,2274,1015.81,28.60,12.99,14.00,6.49,1.00,10.76,,,
2013-11-03 14:00,6.3,,,2694,1016.66,11.69,13.48,14.24,6.06,1.00,10.47,,,
2013-11-03 15:00,6.7,,,2934,1017.46,16.45,12.61,13.78,6.44,1.00,10.62,,,
2013-11-03 16:00,6.5,,,2867,1018.32,12.21,11.69,12.79,3.97,1.00,9.13,,,
2013-11-03 17:00,6.5,,,2923,1018.44,6.18,10.61,11.81,4.88,1.00,8.50,,,
2013-11-03 18:00,6.4,,,2950,1019.17,349.47,9.04,10.25,4.21,1.00,7.09,,,
2013-11-03 19:00,6.4,,,2958,1019.85,344.06,8.19,9.13,3.07,1.00,6.50,,,
2013-11-03 20:00,6.6,,,2935,1020.58,331.50,7.05,7.94,2.75,1.00,5.62,,,
2013-11-03 21:00,6.8,,,2962,1021.63,322.30,7.13,8.02,3.38,1.00,5.69,,,
2013-11-03 22:00,7.0,,,2968,1022.48,317.90,7.96,8.86,3.65,1.00,6.24,,,
2013-11-03 23:00,,,,,,,,,,,,,,
2013-11-04 00:00,6.2,,,2969,1024.39,314.80,11.69,12.60,4.79,1.00,9.51,,,
2013-11-04 01:00,6.6,,,2966,1025.06,358.73,12.95,14.33,6.93,1.00,10.45,,,
2013-11-04 02:00,5.8,,,2966,1026.23,3.93,13.61,15.04,7.14,1.00,10.93,,,
2013-11-04 03:00,5.4,,,2963,1027.09,3.33,12.92,13.51,5.81,1.00,10.41,,,
2013-11-04 04:00,5.1,,,2960,1027.76,357.87,12.38,13.04,5.86,1.00,9.93,,,
2013-11-04 05:00,4.9,,,2969,1028.38,358.70,13.27,14.80,7.34,1.00,10.89,,,
2013-11-04 06:00,4.6,,,2964,1029.49,8.48,12.27,12.90,5.44,1.00,9.80,,,
2013-11-04 07:00,4.8,,,2964,1030.35,11.83,12.06,13.00,6.12,1.00,9.71,,,
2013-11-04 08:00,4.6,,,2965,1031.27,8.67,12.32,13.34,4.88,1.00,9.43,,,
2013-11-04 09:00,4.4,,,2962,1032.19,8.45,11.54,12.89,5.69,1.00,9.13,,,
2013-11-04 10:00,4.2,,,2962,1032.87,17.62,11.66,12.44,4.78,1.00,9.38,,,
2013-11-04 12:00,4.1,,,2843,1034.96,11.71,11.01,12.42,5.47,1.00,9.00,,,
2013-11-04 13:00,3.9,,,2908,1035.58,19.18,10.48,11.70,5.14,1.00,8.25,,,
2013-11-04 14:00,4.0,,,2729,1035.52,31.38,11.21,11.99,5.29,1.00,8.87,,,
2013-11-04 15:00,3.8,,,2769,1036.26,20.02,9.85,10.59,5.15,1.00,7.82,,,
2013-11-04 16:00,3.7,,,2945,1036.38,10.26,10.17,11.06,3.99,1.00,7.52,,,
2013-11-04 17:00,,,,,,,,,,,,,,
2013-11-04 18:00,3.7,,,2882,1036.44,6.32,8.65,9.63,3.38,1.00,6.55,,,
2013-11-04 19:00,3.6,,,2950,1036.75,18.29,8.01,9.26,2.91,1.00,6.39,,,
2013-11-04 20:00,3.8,,,2957,1037.06,17.42,7.60,8.59,2.28,1.00,5.83,,,
2013-11-04 21:00,4.1,,,2963,1037.55,16.82,5.91,6.68,1.79,1.00,4.16,,,
2013-11-04 22:00,4.4,,,2969,1038.10,19.78,6.41,7.19,1.89,1.00,4.50,,,
2013-11-04 23:00,4.5,,,2969,1038.54,35.70,4.21,5.10,0.62,1.00,2.62,,,
2013-11-05 00:00,4.8,,,2970,1038.60,45.49,7.01,7.31,1.18,1.00,4.23,,,
2013-11-05 01:00,5.1,,,2970,1038.84,46.58,6.95,8.28,1.40,1.00,4.23,,,
2013-11-05 02:00,5.5,,,2968,1038.23,57.10,7.58,8.29,2.82,1.00,5.59,,,
2013-11-05 03:00,5.4,,,2968,1038.41,63.80,5.67,6.45,2.02,1.00,4.35,,,
2013-11-05 04:00,5.7,,,2969,1038.29,49.50,5.27,6.17,2.09,1.00,4.17,,,
2013-11-05 05:00,5.6,,,2970,1038.91,47.20,4.35,4.87,0.08,1.00,2.62,,,
2013-11-05 06:00,5.2,,,2970,1038.91,326.50,5.88,6.40,1.53,1.00,4.33,,,
2013-11-05 07:00,5.0,,,2966,1038.54,337.80,5.68,6.29,3.10,1.00,4.79,,,
2013-11-05 08:00,5.0,,,2966,1038.47,326.80,6.13,7.28,2.73,1.00,4.92,,,
2013-11-05 09:00,4.6,,,2968,1038.84,325.70,6.25,6.97,3.43,1.00,5.32,,,
2013-11-05 10:00,5.2,,,2969,1038.47,357.77,5.94,6.81,3.10,1.00,4.85,,,
2013-11-05 11:00,5.4,,,2969,1038.54,345.93,4.97,6.03,1.63,1.00,3.55,,,
2013-11-05 12:00,5.7,,,2942,1038.97,343.40,4.91,5.42,1.35,1.00,3.64,,,
2013-11-05 13:00,5.6,,,2941,1039.09,330.00,6.19,7.07,3.42,1.00,5.26,,,
2013-11-05 14:00,5.4,,,2949,1038.97,317.50,5.53,6.26,2.33,1.00,4.62,,,
2013-11-05 15:00,5.6,,,2951,1038.78,301.90,4.14,4.89,1.62,1.00,3.08,,,
2013-11-05 16:00,6.4,,,2948,1038.17,258.00,2.77,3.50,0.27,1.00,1.76,,,
2013-11-05 17:00,6.6,,,2953,1037.43,254.50,3.16,4.12,0.62,1.00,2.47,,,
2013-11-05 18:00,7.1,,,2894,1036.81,195.50,3.29,3.81,0.61,1.00,2.17,,,
2013-11-05 19:00,7.2,,,2199,1036.26,168.20,4.07,4.60,1.14,1.00,2.81,,,
2013-11-05 20:00,7.5,,,1651,1035.58,149.50,5.51,6.01,2.72,1.00,4.12,,,
2013-11-05 21:00,7.8,,,2454,1035.33,151.80,5.99,6.65,3.21,1.00,4.72,,,
2013-11-05 22:00,7.9,,,2967,1035.08,155.50,6.55,7.28,3.46,1.00,5.29,,,
2013-11-05 23:00,8.5,,,2970,1035.15,166.40,6.70,7.28,3.46,1.00,5.22,,,
2013-11-06 00:00,9.0,,,2969,1034.90,180.10,8.66,9.16,4.69,1.00,6.77,,,
2013-11-06 01:00,8.8,,,2968,1034.65,203.60,8.72,9.71,4.66,1.00,7.06,,,
2013-11-06 02:00,8.4,,,2969,1034.47,209.40,9.81,10.82,4.97,1.00,7.96,,,
2013-11-06 03:00,8.6,,,2969,1033.48,201.10,8.35,8.91,4.60,1.00,6.89,,,
2013-11-06 04:00,8.9,,,2968,1033.18,209.30,8.01,8.80,3.64,1.00,6.73,,,
2013-11-06 05:00,8.6,,,2967,1032.68,207.50,7.92,9.11,3.64,1.00,6.86,,,
2013-11-06 06:00,8.9,,,2969,1032.44,207.50,7.67,8.37,3.89,1.00,6.24,,,
2013-11-06 07:00,9.0,,,2969,1031.70,205.60,8.17,9.39,4.03,1.00,6.91,,,
2013-11-06 08:00,9.2,,,2969,1031.39,219.40,8.07,8.57,4.26,1.00,6.68,,,
2013-11-06 09:00,9.3,,,2969,1030.90,214.40,7.13,8.23,3.46,1.00,6.15,,,
2013-11-06 10:00,9.5,,,2968,1030.78,215.40,7.46,8.26,3.67,1.00,6.37,,,
2013-11-06 11:00,9.6,,,2969,1030.59,211.20,7.89,8.82,4.50,1.00,6.82,,,
2013-11-06 12:00,9.7,,,2965,1030.41,202.10,7.44,8.48,3.89,1.00,6.20,,,
2013-11-06 13:00,9.9,,,2951,1029.85,198.00,8.51,9.10,4.33,1.00,7.08,,,
2013-11-06 14:00,10.1,,,2953,1029.24,194.30,8.42,9.16,4.65,1.00,7.12,,,
2013-11-06 15:00,10.6,,,2941,1028.26,190.90,8.96,9.99,5.24,1.00,7.59,,,
2013-11-06 16:00,10.8,,,2912,1027.03,171.30,8.84,9.61,3.89,1.00,7.27,,,
2013-11-06 17:00,11.5,,,2790,1025.31,169.00,8.88,9.84,4.38,1.00,7.33,,,
2013-11-06 18:00,11.7,,,2858,1024.14,171.20,8.61,9.87,4.68,1.00,7.49,,,
2013-11-06 19:00,12.0,,,2896,1023.28,161.80,9.31,10.25,5.00,1.00,7.64,,,
2013-11-06 20:00,12.4,,,1277,1022.85,172.20,7.98,8.98,4.60,1.00,6.95,,,
2013-11-06 21:00,12.7,,, 920,1022.36,186.30,8.27,9.04,4.79,1.00,6.94,,,
2013-11-06 22:00,12.7,,,2957,1022.24,199.20,11.67,12.85,6.77,1.00,9.81,,,
2013-11-06 23:00,12.2,,,2954,1021.99,177.90,10.40,11.35,6.52,1.00,8.85,,,
2013-11-07 00:00,12.0,,,2951,1021.50,174.30,9.28,9.97,4.97,1.00,7.66,,,
2013-11-07 01:00,11.9,,,2950,1020.52,178.30,9.01,9.88,5.00,1.00,7.78,,,
2013-11-07 02:00,11.8,,,2950,1019.60,173.90,9.25,10.02,5.69,1.00,7.94,,,
2013-11-07 03:00,12.0,,,2934,1018.26,172.70,9.54,10.36,5.01,1.00,7.97,,,
2013-11-07 04:00,12.2,,,2944,1017.40,190.40,10.03,11.32,5.64,1.00,8.65,,,
2013-11-07 06:00,12.4,,,2957,1015.62,212.50,9.41,10.44,5.34,1.00,8.18,,,
2013-11-07 07:00,12.3,,,2942,1014.46,196.60,9.39,10.02,5.60,1.00,7.93,,,
2013-11-07 08:00,12.7,,,2924,1013.30,203.50,9.92,11.35,5.80,1.00,8.52,,,
2013-11-07 09:00,12.9,,,2908,1012.75,200.00,8.69,9.13,5.06,1.00,7.22,,,
2013-11-07 10:00,12.6,,,2880,1012.20,180.50,6.23,7.03,3.59,1.00,5.38,,,
2013-11-07 11:00,13.8,,,2927,1010.42,183.60,10.52,11.05,5.72,1.00,8.56,,,
2013-11-07 12:00,12.9,,,2856,1009.57,168.20,9.35,10.20,5.12,1.00,8.08,,,
2013-11-07 13:00,13.0,,,2179,1009.45,194.40,7.13,8.55,3.61,1.00,5.99,,,
2013-11-07 14:00,13.2,,,2930,1008.47,184.80,5.88,7.00,2.74,1.00,5.13,,,
2013-11-07 15:00,13.9,,,2945,1007.25,193.40,7.69,9.09,4.15,1.00,6.59,,,
2013-11-07 16:00,14.1,,,2937,1005.96,207.10,6.33,7.05,3.76,1.00,5.48,,,
2013-11-07 17:00,13.9,,,2920,1004.68,235.50,5.57,6.68,2.69,1.00,4.66,,,
2013-11-07 18:00,13.4,,,2489,1004.56,264.00,6.44,7.24,3.27,1.00,5.16,,,
2013-11-07 19:00,13.1,,,2620,1004.13,234.70,6.37,7.38,3.51,1.00,5.28,,,
2013-11-07 20:00,12.7,,,2284,1003.83,242.50,4.87,5.70,2.60,1.00,4.06,,,
2013-11-07 21:00,12.6,,,2846,1004.93,272.60,8.13,8.61,4.13,1.00,6.46,,,
2013-11-07 22:00,12.1,,,2913,1004.99,261.00,5.77,6.53,2.67,1.00,4.51,,,
2013-11-07 23:00,11.3,,,2961,1005.41,289.90,7.69,8.82,3.53,1.00,6.12,,,
2013-11-08 00:00,11.1,,,2968,1006.09,288.90,8.61,9.31,4.47,1.00,7.08,,,
2013-11-08 01:00,10.3,,,2969,1006.64,331.00,13.00,14.36,8.07,1.00,10.94,,,
2013-11-08 02:00,9.4,,,2969,1007.19,325.80,12.02,13.13,6.34,1.00,10.10,,,
2013-11-08 03:00,8.4,,,2969,1007.92,311.50,10.62,12.55,5.70,1.00,9.05,,,
2013-11-08 04:00,7.8,,,2969,1008.22,306.40,9.49,10.46,4.80,1.00,7.79,,,
2013-11-08 05:00,7.6,,,2969,1008.47,299.60,10.16,11.02,4.73,1.00,7.99,,,
2013-11-08 06:00,7.1,,,2969,1008.28,299.10,9.68,10.74,4.59,1.00,8.09,,,
2013-11-08 07:00,6.6,,,2969,1008.71,298.00,10.66,12.04,5.80,1.00,8.39,,,
2013-11-08 08:00,5.9,,,2906,1008.71,294.00,11.86,13.10,6.32,1.00,10.03,,,
2013-11-08 09:00,5.0,,,2969,1009.45,303.70,12.03,12.92,6.39,1.00,9.54,,,
2013-11-08 10:00,4.7,,,2969,1010.24,296.70,10.55,10.84,0.00,1.00,8.38,,,
2013-11-08 11:00,4.8,,,2969,1010.48,284.10,11.84,12.98,5.19,1.00,9.73,,,
2013-11-08 12:00,5.2,,,2960,1011.95,276.50,12.01,12.91,5.11,1.00,9.83,,,
2013-11-08 13:00,5.3,,,2966,1012.32,280.10,10.38,11.33,5.64,1.00,8.90,,,
2013-11-08 14:00,5.6,,,2957,1012.44,271.70,7.97,8.87,3.40,1.00,6.34,,,
2013-11-08 15:00,6.4,,,2968,1011.77,265.00,9.25,10.00,4.27,1.00,7.33,,,
2013-11-08 16:00,7.0,,,2960,1011.34,280.30,10.47,11.28,5.76,1.00,8.46,,,
2013-11-08 17:00,7.4,,,2954,1010.67,284.30,9.88,10.98,4.75,1.00,7.85,,,
2013-11-08 18:00,7.7,,,2956,1010.18,287.00,7.10,7.93,3.41,1.00,5.92,,,
2013-11-08 19:00,8.6,,,2960,1010.06,279.70,13.30,14.56,5.88,1.00,9.71,,,
2013-11-08 20:00,8.3,,,2963,1010.36,274.60,9.47,10.36,3.38,1.00,7.09,,,
2013-11-08 21:00,7.2,,,2966,1011.28,309.90,12.50,13.62,6.93,1.00,9.96,,,
2013-11-08 22:00,6.2,,,2968,1012.81,313.10,11.98,13.51,5.62,1.00,9.62,,,
2013-11-08 23:00,5.5,,,2969,1014.21,307.20,12.13,13.68,6.96,1.00,10.05,,,
2013-11-09 00:00,5.4,,,2969,1015.19,300.80,11.37,12.22,6.05,1.00,9.58,,,
2013-11-09 01:00,5.2,,,2969,1016.05,301.10,11.67,12.31,6.13,1.00,9.81,,,
2013-11-09 02:00,5.2,,,2969,1016.66,291.30,11.59,13.29,6.60,1.00,9.70,,,
2013-11-09 03:00,5.2,,,2969,1017.03,285.90,12.67,12.97,6.13,1.00,10.11,,,
2013-11-09 04:00,5.1,,,2969,1017.09,295.20,11.41,13.02,5.36,1.00,9.79,,,
2013-11-09 05:00,5.1,,,2969,1017.58,281.90,12.21,13.22,6.58,1.00,10.15,,,
2013-11-09 06:00,4.9,,,2969,1017.70,281.80,11.68,12.47,5.23,1.00,8.78,,,
2013-11-09 07:00,5.2,,,2969,1018.13,287.20,12.36,13.14,7.04,1.00,10.38,,,
2013-11-09 08:00,4.9,,,2969,1018.75,284.80,11.88,12.99,6.66,1.00,9.67,,,
2013-11-09 09:00,4.6,,,2969,1019.24,283.00,11.37,12.73,5.35,1.00,8.66,,,
2013-11-09 10:00,4.5,,,2969,1019.85,283.20,12.54,13.32,7.01,1.00,10.04,,,
2013-11-09 11:00,4.3,,,2968,1020.40,284.30,10.45,11.72,6.62,1.00,9.12,,,
2013-11-09 12:00,4.1,,,2965,1021.14,283.40,10.16,11.07,6.30,1.00,8.53,,,
2013-11-09 13:00,4.0,,,2963,1021.57,281.10,11.37,11.85,5.63,1.00,9.08,,,
2013-11-09 14:00,4.4,,,2963,1021.01,284.80,12.29,13.04,7.29,1.00,10.48,,,
2013-11-09 15:00,5.0,,,2873,1020.83,311.90,12.39,13.63,5.12,1.00,8.29,,,
2013-11-09 16:00,5.6,,,2947,1019.97,298.30,11.09,11.97,4.86,1.00,8.74,,,
2013-11-09 17:00,6.2,,,2900,1019.48,298.40,8.76,10.16,3.18,1.00,7.50,,,
2013-11-09 18:00,6.6,,,2949,1019.05,288.30,9.25,9.94,4.27,1.00,7.29,,,
2013-11-09 19:00,6.8,,,2952,1018.68,292.30,9.27,10.05,5.15,1.00,7.84,,,
2013-11-09 20:00,6.9,,,2963,1018.19,281.50,10.40,11.23,5.45,1.00,8.28,,,
2013-11-09 21:00,6.8,,,2571,1018.62,268.40,7.69,8.68,3.21,1.00,5.68,,,
2013-11-09 22:00,6.5,,,2969,1018.81,270.10,6.99,7.58,3.28,1.00,5.49,,,
2013-11-10 00:00,7.2,,,2969,1018.81,245.20,8.62,9.53,4.55,1.00,7.08,,,
2013-11-10 01:00,7.4,,,2968,1019.17,237.30,9.12,9.81,5.24,1.00,7.69,,,
2013-11-10 02:00,7.4,,,2969,1018.99,225.10,9.07,9.81,5.24,1.00,7.44,,,
2013-11-10 03:00,7.7,,,2969,1018.93,229.70,8.84,9.53,4.18,1.00,7.24,,,
2013-11-10 04:00,7.9,,,2969,1018.13,216.80,7.07,7.79,3.54,1.00,5.76,,,
2013-11-10 06:00,8.4,,,2969,1015.68,180.70,7.26,8.28,3.93,1.00,5.97,,,
2013-11-10 07:00,9.2,,,2968,1014.28,183.00,9.61,10.52,4.75,1.00,7.89,,,
2013-11-10 08:00,9.6,,,2968,1013.17,192.70,9.32,10.45,5.27,1.00,8.06,,,
2013-11-10 09:00,10.0,,,2967,1012.13,176.90,9.80,10.61,5.06,1.00,8.16,,,
2013-11-10 10:00,10.4,,,2957,1011.58,201.50,8.34,9.19,4.17,1.00,7.24,,,
2013-11-10 11:00,8.5,,,2632,1011.58,227.40,8.01,8.89,4.85,1.00,6.86,,,
2013-11-10 12:00,9.3,,,2968,1010.85,208.40,7.84,8.43,4.05,1.00,6.35,,,
2013-11-10 13:00,10.1,,,2965,1010.24,196.60,8.86,9.40,5.22,1.00,7.58,,,
2013-11-10 14:00,10.3,,,2912,1009.75,207.40,9.05,9.97,4.72,1.00,7.51,,,
2013-11-10 15:00,10.2,,,2935,1008.96,215.80,7.51,8.61,4.19,1.00,6.51,,,
2013-11-10 16:00,10.4,,,2867,1008.04,226.80,6.90,7.65,3.54,1.00,5.60,,,
2013-11-10 17:00,10.5,,,2853,1006.64,230.00,5.50,6.35,2.64,1.00,4.53,,,
2013-11-10 18:00,10.7,,,2945,1005.90,221.50,6.06,6.71,3.37,1.00,5.22,,,
2013-11-10 19:00,10.7,,,2945,1005.90,221.50,6.06,6.71,3.37,1.00,5.22,,,
2013-11-10 20:00,11.5,,,2967,1005.84,269.80,11.36,12.09,5.38,1.00,8.82,,,
2013-11-10 21:00,10.8,,,2969,1006.03,243.70,7.45,8.22,4.10,1.00,6.08,,,
2013-11-10 22:00,10.7,,,2968,1006.70,266.60,12.22,13.05,7.26,1.00,10.13,,,
2013-11-10 23:00,10.3,,,2969,1007.31,268.00,10.26,11.14,5.15,1.00,8.20,,,
2013-11-11 00:00,9.8,,,2969,1007.67,275.00,11.91,13.51,6.11,1.00,9.66,,,
2013-11-11 01:00,9.3,,,2969,1007.80,272.40,13.28,14.12,6.82,1.00,10.29,,,
2013-11-11 02:00,8.9,,,2968,1008.16,262.80,11.44,12.36,4.45,1.00,9.09,,,
2013-11-11 03:00,8.8,,,2966,1008.22,255.50,12.84,13.77,7.73,1.00,10.98,,,
2013-11-11 04:00,8.7,,,2969,1008.65,254.60,13.45,14.81,7.88,1.00,11.15,,,
2013-11-11 05:00,8.3,,,2968,1008.90,267.60,13.16,14.09,7.56,1.00,10.84,,,
2013-11-11 06:00,7.9,,,2907,1009.57,280.20,13.92,14.84,8.31,1.00,11.61,,,
2013-11-11 07:00,7.6,,,2966,1010.73,285.80,13.89,14.99,7.88,1.00,11.55,,,
2013-11-11 08:00,7.0,,,2969,1011.40,289.80,14.19,15.38,7.67,1.00,11.34,,,
2013-11-11 09:00,6.6,,,2968,1012.26,287.50,14.56,15.66,6.80,1.00,11.67,,,
2013-11-11 10:00,6.3,,,2969,1013.30,291.70,13.03,14.18,6.71,1.00,10.63,,,
2013-11-11 11:00,6.0,,,2969,1014.89,293.50,14.34,15.78,7.45,1.00,11.92,,,
2013-11-11 12:00,6.0,,,2673,1016.36,301.30,9.70,10.97,4.86,1.00,7.68,,,
2013-11-11 13:00,5.6,,,2886,1017.46,290.00,10.18,10.98,4.06,1.00,7.58,,,
2013-11-11 14:00,5.8,,,2965,1017.64,284.60,10.34,11.32,5.04,1.00,8.41,,,
2013-11-11 15:00,6.3,,,2946,1018.01,287.40,11.27,12.35,6.29,1.00,9.00,,,
2013-11-11 16:00,6.9,,,2958,1017.52,270.80,9.60,9.96,5.38,1.00,7.50,,,
2013-11-11 17:00,7.7,,,2965,1016.30,271.20,9.45,10.21,4.73,1.00,7.77,,,
2013-11-11 18:00,8.6,,,2966,1015.87,252.60,7.69,8.71,3.75,1.00,6.35,,,
2013-11-11 19:00,9.0,,,2963,1014.95,253.20,7.10,7.63,2.05,1.00,5.18,,,
2013-11-11 20:00,9.6,,,2730,1014.46,222.50,7.21,7.77,3.55,1.00,5.84,,,
2013-11-11 21:00,10.0,,,2966,1014.21,200.30,7.76,8.37,4.56,1.00,6.47,,,
2013-11-11 22:00,10.5,,,2969,1014.09,199.90,7.82,8.72,3.88,1.00,6.54,,,
2013-11-11 23:00,10.3,,,2969,1014.09,200.10,8.26,8.90,4.87,1.00,6.70,,,
2013-11-12 00:00,9.9,,,2969,1013.72,207.30,8.88,9.46,5.22,1.00,7.57,,,
2013-11-12 01:00,9.9,,,2969,1013.30,235.00,10.93,11.94,6.43,1.00,9.11,,,
2013-11-12 02:00,9.8,,,2968,1012.93,231.90,12.00,12.83,6.59,1.00,10.30,,,
2013-11-12 03:00,9.9,,,2968,1012.44,226.10,11.60,12.49,6.69,1.00,9.76,,,
2013-11-12 04:00,9.9,,,2969,1011.95,219.80,11.68,12.82,6.96,1.00,9.85,,,
2013-11-12 06:00,10.3,,,2968,1011.22,228.30,10.84,12.35,6.31,1.00,9.24,,,
2013-11-12 07:00,10.4,,,2969,1011.46,246.30,11.50,12.70,4.60,1.00,8.42,,,
2013-11-12 08:00,8.6,,,2960,1011.28,275.30,11.67,12.74,5.87,1.00,9.87,,,
2013-11-12 09:00,7.7,,,2622,1011.65,256.30,10.78,11.89,5.84,1.00,9.29,,,
2013-11-12 10:00,7.8,,,2966,1011.58,259.50,11.01,12.26,6.23,1.00,9.35,,,
2013-11-12 11:00,7.2,,,2880,1012.13,275.20,11.70,12.72,6.41,1.00,9.71,,,
2013-11-12 12:00,3.6,,,2783,1013.91,334.60,14.40,16.09,7.14,1.00,11.65,,,
2013-11-12 13:00,3.1,,,2786,1015.25,310.50,12.05,13.61,6.14,1.00,9.68,,,
2013-11-12 14:00,3.2,,,2968,1015.56,311.70,10.69,11.77,5.21,1.00,8.80,,,
2013-11-12 15:00,2.9,,,2960,1016.48,304.80,12.73,14.12,6.71,1.00,10.32,,,
2013-11-12 16:00,2.5,,,2966,1016.30,305.90,11.67,13.23,5.73,1.00,9.42,,,
2013-11-12 17:00,2.3,,,2961,1016.42,308.30,13.03,14.28,5.54,1.00,10.46,,,